Regional Weather Roundup
Issued by NWS

Home | Current Version | Previous Version | Graphics & Text | Print | Product List | Glossary On
Versions: 1 2 3 4 5 6 7 8 9 10 11 12 13 14 15 16 17 18 19 20 21 22 23 24 25 26 27 28 29 30 31 32 33 34 35 36 37 38 39 40 41 42 43 44 45 46 47 48 49 50
000
ASUS43 KIND 271609
RWRIN

WEATHER ROUNDUP FOR INDIANA
NATIONAL WEATHER SERVICE INDIANAPOLIS IN
1200 PM EDT WED AUG 27 2014

NOTE: "FAIR" INDICATES FEW OR NO CLOUDS BELOW 12,000 FEET WITH NO
SIGNIFICANT WEATHER AND/OR OBSTRUCTIONS TO VISIBILITY.

* - STATION DOES NOT REPORT WEATHER SUCH AS PRECIPITATION OR FOG.

+ - STATION NOT QUALITY CONTROLLED BY THE NATIONAL WEATHER SERVICE.
    USE DATA WITH CAUTION...ESPECIALLY DEWPOINT AND RELATIVE
    HUMIDITY OBSERVATIONS.

INZ001>003-010>013-019-020-271700-
NORTHWEST INDIANA

CITY           SKY/WX    TMP DP  RH WIND       PRES   REMARKS
GARY /AIRPORT/ PTSUNNY   75  63  64 NE9       30.15F
KNOX *+        SUNNY     74  62  66 N6        30.14S
LA PORTE +     SUNNY     74  60  62 E6        30.16S
MICHIGAN CITY+ SUNNY     72  59  64 NE6       30.15S
MONTICELLO +   SUNNY     77  68  72 E3        30.12S
RENSSELAER +   SUNNY     77  68  73 NE3       30.14S
VALPARAISO     SUNNY     75  62  64 NE7       30.14F

$$

LMZ046-743>745-271700-
SOUTHERN LAKE MICHIGAN

STATION/POSITION TIME  TEMP WIND        PRES
                       AIR  DIR/SP/G
                 (UTC) (F)  (DEG/KT/KT) (MB)
MICHIGAN CITY    1600   70  360/  8/ 10   N/A

$$

INZ004-005-014>016-021>024-271700-
NORTH CENTRAL INDIANA

CITY           SKY/WX    TMP DP  RH WIND       PRES   REMARKS
ELKHART        SUNNY     73  59  60 CALM      30.15S
GOSHEN         SUNNY     75  64  68 VRB6      30.14F
LOGANSPORT +   SUNNY     77  68  73 CALM      30.13S
PERU/GRISSOM   SUNNY     78  75  91 CALM      30.13R
ROCHESTER +    SUNNY     79  64  61 N7        30.14S
SOUTH BEND     MOSUNNY   76  63  64 NE5       30.15S
WARSAW +       SUNNY     73  63  68 N7        30.14S

$$

INZ006>009-017-018-025>027-271700-
NORTHEAST INDIANA

CITY           SKY/WX    TMP DP  RH WIND       PRES   REMARKS
ANGOLA *+      SUNNY    N/A N/A N/A N8        30.14S
AUBURN +       SUNNY     77  59  53 NW5       30.13F
FORT WAYNE     PTSUNNY   78  68  71 NE6       30.12F
HUNTINGTON +   MOSUNNY   77  69  77 N3        30.12S

$$

INZ028-029-035-036-043>045-051>053-271700-
WEST CENTRAL INDIANA

CITY           SKY/WX    TMP DP  RH WIND       PRES   REMARKS
GREENCASTLE +  SUNNY     81  70  69 CALM      30.13S
LAFAYETTE      MOSUNNY   77  71  82 CALM      30.12S
TERRE HAUTE    SUNNY     82  71  69 CALM      30.12S

$$

INZ030>032-037>040-046>048-054>057-064-065-271700-
CENTRAL INDIANA

CITY           SKY/WX    TMP DP  RH WIND       PRES   REMARKS
ANDERSON       MOSUNNY   81  70  69 NW6       30.14S
CP ATTERBURY + SUNNY     82  70  65 NW5       30.12F
COLUMBUS       SUNNY     82  73  74 CALM      30.12R
FRANKFORT +    MOSUNNY   78  73  84 CALM      30.14S
INDIANAPOLIS   MOSUNNY   82  67  60 CALM      30.11S
-EAGLE CREEK   SUNNY     81  68  64 W3        30.11F
KOKOMO *+      MOSUNNY   77  70  78 S3        30.13S
MARION +       MOSUNNY   75  68  79 CALM      30.14S
MT COMFORT *+  SUNNY     82  66  57 CALM      30.12F
SHELBYVILLE    SUNNY     82  71  69 NW3       30.11S
ZIONSVILLE +   MOSUNNY   80  71  74 E5        30.14R

$$

INZ033-034-041-042-049-050-058-059-271700-
EAST CENTRAL INDIANA

CITY           SKY/WX    TMP DP  RH WIND       PRES   REMARKS
MUNCIE         MOSUNNY   80  70  71 CALM      30.12F

$$

INZ060-061-067>069-081>083-085>088-271700-
SOUTHWEST INDIANA

CITY           SKY/WX    TMP DP  RH WIND       PRES   REMARKS
EVANSVILLE     SUNNY     89  72  56 W3        30.11S HX  96
WASHINGTON +   MOSUNNY   85  75  73 CALM      30.11S

$$

INZ062-063-066-070>080-084-089>092-271700-
SOUTH CENTRAL AND SOUTHEAST INDIANA

CITY           SKY/WX    TMP DP  RH WIND       PRES   REMARKS
BLOOMINGTON    SUNNY     85  70  60 W3        30.12S
NORTH VERNON + SUNNY     84  72  65 CALM      30.12
SEYMOUR +      SUNNY     84  64  51 CALM      30.11

$$



USA.gov is the U.S. government's official web portal to all federal, state and local government web resources and services.